TimePDT,TemperatureF,Dew PointF,Humidity,Sea Level PressureIn,VisibilityMPH,Wind Direction,Wind SpeedMPH,Gust SpeedMPH,PrecipitationIn,Events,Conditions,WindDirDegrees,DateUTC
12:53 AM,59.0,35.1,41,30.04,10.0,South,9.2,-,N/A,,Overcast,170,2013-06-20 07:53:00
1:53 AM,57.9,34.0,41,30.04,10.0,SSE,6.9,-,N/A,,Overcast,150,2013-06-20 08:53:00
2:53 AM,57.0,34.0,42,30.02,10.0,SSE,8.1,-,N/A,,Overcast,150,2013-06-20 09:53:00
3:24 AM,57.2,35.6,44,30.00,10.0,SE,4.6,-,N/A,,Overcast,140,2013-06-20 10:24:00
3:53 AM,57.0,35.1,44,30.01,10.0,SSE,6.9,-,N/A,,Overcast,160,2013-06-20 10:53:00
4:53 AM,57.0,36.0,45,30.01,10.0,South,10.4,-,N/A,,Overcast,170,2013-06-20 11:53:00
5:53 AM,57.0,43.0,59,30.01,10.0,SSE,6.9,-,N/A,,Overcast,160,2013-06-20 12:53:00
6:53 AM,57.0,37.9,49,30.00,10.0,South,8.1,-,N/A,,Overcast,170,2013-06-20 13:53:00
7:53 AM,55.9,36.0,47,30.00,4.0,South,4.6,-,0.01,Rain,Light Rain,180,2013-06-20 14:53:00
8:53 AM,57.0,41.0,55,29.99,10.0,South,5.8,-,0.01,,Overcast,180,2013-06-20 15:53:00
9:53 AM,59.0,41.0,51,29.99,10.0,South,11.5,18.4,N/A,,Overcast,190,2013-06-20 16:53:00
9:55 AM,59.0,41.0,51,29.98,10.0,South,8.1,18.4,N/A,,Overcast,190,2013-06-20 16:55:00
10:53 AM,60.1,41.0,49,29.99,10.0,South,10.4,19.6,N/A,,Overcast,180,2013-06-20 17:53:00
11:53 AM,61.0,42.1,50,29.99,10.0,South,13.8,25.3,N/A,,Overcast,170,2013-06-20 18:53:00
12:53 PM,63.0,42.1,46,29.99,10.0,South,11.5,26.5,0.00,,Overcast,170,2013-06-20 19:53:00
1:53 PM,63.0,39.9,43,30.00,10.0,South,11.5,-,0.00,Rain,Light Rain,170,2013-06-20 20:53:00
2:53 PM,62.1,39.0,43,30.01,10.0,South,10.4,-,0.00,Rain,Light Rain,180,2013-06-20 21:53:00
3:53 PM,60.1,41.0,49,30.03,8.0,South,6.9,-,0.01,Rain,Light Rain,180,2013-06-20 22:53:00
4:53 PM,59.0,41.0,51,30.06,6.0,South,3.5,-,0.03,Rain,Light Rain,170,2013-06-20 23:53:00
5:53 PM,57.9,43.0,58,30.07,10.0,SSE,5.8,-,0.01,Rain,Light Rain,160,2013-06-21 00:53:00
6:53 PM,57.9,42.1,56,30.08,10.0,Variable,6.9,-,0.01,,Overcast,0,2013-06-21 01:53:00
7:53 PM,57.9,42.1,56,30.09,8.0,South,4.6,-,0.01,Rain,Light Rain,180,2013-06-21 02:53:00
8:22 PM,57.2,42.8,59,30.09,10.0,South,4.6,-,0.00,Rain,Light Rain,170,2013-06-21 03:22:00
8:53 PM,57.0,43.0,59,30.11,10.0,South,3.5,-,0.01,Rain,Light Rain,170,2013-06-21 03:53:00
9:28 PM,55.4,42.8,63,30.10,10.0,SSE,8.1,-,0.00,,Overcast,160,2013-06-21 04:28:00
9:53 PM,55.9,42.1,60,30.12,10.0,South,6.9,-,0.00,,Overcast,170,2013-06-21 04:53:00
10:08 PM,55.4,42.8,63,30.11,10.0,SSE,4.6,-,N/A,,Overcast,150,2013-06-21 05:08:00
10:53 PM,55.0,42.1,62,30.13,10.0,SE,3.5,-,N/A,,Overcast,140,2013-06-21 05:53:00
11:53 PM,55.9,41.0,57,30.13,10.0,SSE,3.5,-,N/A,,Overcast,160,2013-06-21 06:53:00